Theta_e
328 327 326 329 327 326 325 327 329 329 329 329 327 324 322 321 322 324 321 321 321 320 319 319 318 319 318 317 316 317 317 318 319 319 317 317 316 316 316 315 314 316 318 319 318 320 318 318 319 319 320 319 319 319 318 318 319 319 319 318 317 319 318 316 312 310 312 314 312 309 312 312 309 311 310 312 312 312 309 312 313 313 312 313 308
329 328 328 329 329 328 327 327 328 329 328 329 328 324 322 321 323 323 323 321 321 319 318 319 319 318 317 317 317 316 317 317 318 319 318 318 318 319 318 316 316 316 318 317 319 318 319 317 317 318 319 317 318 316 316 317 317 317 317 317 315 316 318 316 313 311 310 312 311 311 311 313 309 310 312 312 312 312 311 312 312 312 310 312 312
329 330 329 329 329 329 328 328 329 329 328 328 328 324 322 323 324 323 323 322 321 320 319 319 318 318 318 318 317 317 317 317 319 318 318 318 318 319 319 318 317 317 317 316 316 317 317 317 317 318 318 318 318 318 317 316 317 316 316 316 316 316 316 316 315 313 311 310 313 310 311 312 313 310 310 312 312 312 311 312 312 312 312 313 312
329 330 329 329 329 329 329 329 329 329 328 327 329 327 324 325 323 324 323 324 321 321 320 319 318 318 318 318 318 317 317 319 319 317 316 316 317 318 318 318 318 317 316 315 315 316 317 316 317 317 318 317 316 316 316 317 318 317 317 317 317 315 317 317 316 315 313 311 312 309 311 312 313 311 311 312 311 311 312 312 313 313 313 312 313
328 328 328 328 330 329 329 328 328 327 327 329 330 328 326 325 324 321 323 323 324 323 320 320 318 318 319 317 317 318 318 318 318 318 320 319 317 318 318 317 318 318 318 317 318 317 317 318 316 317 318 317 317 315 316 317 317 318 318 316 315 316 317 317 316 315 314 313 313 313 314 313 312 313 313 310 312 313 314 313 313 313 314 314 314
327 328 327 327 327 327 328 328 328 327 326 326 327 329 328 325 325 325 323 320 322 324 322 320 319 317 317 317 317 318 317 318 318 318 319 320 320 319 319 319 319 319 319 319 317 318 318 319 318 318 318 319 317 318 318 317 317 317 317 316 315 316 318 317 317 316 314 312 313 313 314 312 313 314 313 311 311 310 311 312 313 313 312 313 313
327 327 327 327 327 327 327 327 328 327 327 327 328 328 328 327 325 323 324 323 321 321 322 321 320 320 318 318 317 318 318 318 318 318 318 319 320 319 320 320 319 320 319 319 319 319 320 320 320 319 319 319 319 319 319 318 317 317 317 317 316 316 316 316 315 314 314 313 313 313 311 313 313 311 312 313 311 311 310 310 310 311 312 311 310
326 327 327 327 327 327 328 329 329 329 329 329 328 329 329 328 327 325 324 324 323 321 320 321 322 321 320 319 319 319 319 318 318 319 318 319 320 320 320 321 321 321 322 320 321 321 320 320 321 321 320 320 321 320 319 318 318 317 318 317 317 316 316 317 315 314 313 313 311 310 311 311 311 311 312 312 310 309 310 309 307 308 309 310 310
325 325 326 326 327 328 329 330 329 329 327 328 328 327 328 327 327 326 324 323 324 323 322 321 321 320 320 321 320 320 321 320 320 320 320 320 321 321 321 321 321 321 321 322 323 323 322 322 322 322 322 322 315 313 313 313 321 317 318 318 317 315 316 315 316 314 312 311 310 312 310 309 310 310 309 309 308 307 309 310 308 308 308 307 308
323 324 323 325 326 326 327 328 327 328 328 328 325 328 327 328 327 326 325 324 323 323 322 322 321 321 320 320 321 322 323 323 323 313 315 322 324 324 324 324 323 324 323 323 324 324 325 324 325 323 316 311 309 303 302 304 304 313 318 319 315 314 314 315 314 314 312 310 310 309 308 308 309 311 310 310 310 311 309 309 306 306 306 306 307
322 322 322 323 324 325 325 325 326 325 327 327 326 326 324 326 326 327 327 326 324 324 324 324 323 322 322 322 322 325 325 324 303 305 306 311 322 325 325 325 325 324 324 324 323 324 324 324 324 320 318 314 315 302 302 301 300 297 295 297 305 320 316 314 314 314 312 312 311 310 308 308 309 311 310 308 310 309 308 307 306 305 304 302 301
320 322 322 324 325 324 325 325 324 325 325 325 324 325 325 325 325 326 327 328 326 326 325 324 324 325 325 324 324 327 328 309 299 301 304 305 311 326 326 325 326 325 325 324 325 325 322 321 318 321 321 321 320 316 308 299 298 294 293 293 292 291 295 308 311 313 313 311 310 311 310 309 309 310 309 310 309 308 308 307 305 304 304 302 302
315 316 318 319 320 322 322 324 324 325 326 325 325 326 325 326 326 325 324 327 326 325 326 325 325 327 327 325 325 326 328 301 300 299 300 300 301 310 324 325 324 324 324 323 324 325 323 321 322 322 322 317 319 319 316 308 296 293 293 293 293 292 291 290 294 309 312 312 311 310 310 310 309 309 310 309 308 306 306 304 305 304 303 301 301
315 314 315 315 315 316 317 319 319 321 324 326 326 325 325 325 327 327 327 325 325 323 324 325 326 325 324 325 324 325 324 302 299 298 298 297 298 302 323 323 323 322 323 323 325 324 324 324 322 320 321 319 320 321 318 311 307 304 306 308 307 301 293 293 293 293 302 310 310 309 311 312 309 309 310 309 307 305 304 303 304 302 301 300 303
314 314 314 314 314 314 314 315 316 317 318 320 322 324 325 326 326 326 326 326 324 323 322 321 324 324 324 323 322 319 321 298 298 298 298 296 295 297 321 324 324 324 325 325 325 324 323 323 321 319 321 319 319 319 318 313 311 310 309 310 309 306 308 308 310 312 311 312 311 311 311 312 311 310 310 309 308 305 304 303 302 302 302 303 303
311 312 313 313 313 313 314 313 314 314 316 318 318 318 320 323 325 326 326 326 326 325 324 323 321 320 321 322 320 318 320 299 297 297 296 295 294 315 319 323 323 323 320 322 322 323 322 322 320 320 319 320 309 304 309 315 313 312 311 311 309 309 305 294 291 294 303 308 308 308 307 303 297 304 302 301 302 302 302 302 301 300 299 298 298
308 309 310 310 311 312 313 313 313 313 314 314 314 317 318 320 322 325 324 324 323 323 323 322 322 320 319 322 319 321 321 304 296 296 295 294 298 318 319 322 321 319 320 318 317 318 315 315 318 318 320 318 302 298 300 304 314 313 312 310 311 311 307 302 294 291 291 290 289 289 289 288 290 289 289 289 297 298 297 297 297 299 297 295 296
306 306 307 308 309 310 311 311 312 312 313 313 314 315 316 318 319 322 322 322 321 322 322 322 323 324 323 321 319 319 318 306 294 295 294 293 304 318 318 317 319 318 317 316 318 316 309 300 308 318 319 311 294 297 296 306 314 313 312 312 310 308 306 305 304 302 290 291 291 290 290 291 291 291 291 291 289 293 298 296 298 298 296 297 296
305 304 305 306 307 307 309 310 311 311 311 312 314 314 316 316 317 319 319 320 319 321 321 321 323 323 324 323 317 318 319 306 293 294 293 293 304 319 317 316 314 314 315 315 315 314 310 303 298 308 310 301 292 293 291 301 315 313 312 311 308 308 308 307 307 306 304 304 302 301 299 295 298 299 299 291 291 294 300 300 300 299 297 297 297
305 305 305 305 306 306 307 308 309 310 311 312 313 313 314 315 316 318 319 318 317 318 319 320 321 322 323 322 322 320 320 315 301 293 294 295 297 317 319 316 315 314 315 312 312 313 310 306 299 291 291 290 290 291 291 292 311 313 312 310 308 308 310 309 309 308 307 306 306 306 306 306 304 303 305 301 297 299 300 302 302 300 298 297 297
304 305 305 305 304 304 305 307 307 309 310 311 312 312 313 313 314 315 317 317 315 314 316 319 320 321 322 324 324 323 320 317 307 293 294 295 295 298 318 316 315 315 313 312 311 310 308 305 303 292 290 290 291 290 292 293 298 312 309 305 303 303 303 308 303 294 302 302 303 303 303 304 304 304 303 303 301 301 301 302 302 301 299 297 295
303 302 302 302 303 304 305 306 307 308 308 309 310 310 312 313 313 313 314 316 315 313 314 317 317 319 321 322 322 321 319 312 312 293 293 294 294 292 307 315 314 313 311 312 311 310 308 304 302 293 289 290 290 291 291 293 294 302 298 289 288 290 304 304 306 304 304 303 302 301 302 301 301 302 301 301 301 301 302 302 301 301 300 300 298
301 301 302 302 302 303 304 305 305 306 306 307 308 309 310 311 312 313 313 315 314 313 313 313 316 317 318 318 320 320 320 314 303 304 294 294 294 294 295 310 300 317 311 310 310 309 307 303 297 290 290 290 291 291 291 292 294 294 288 289 289 286 293 302 302 302 300 301 301 300 299 300 301 300 300 300 301 302 301 300 300 299 299 299 299
301 301 301 301 302 302 303 303 304 304 305 306 306 306 307 309 310 311 312 312 312 311 312 314 314 316 314 315 318 319 317 316 302 301 299 291 293 294 296 297 300 311 313 312 311 307 304 301 296 289 289 289 289 290 290 292 294 288 288 288 288 290 300 302 300 302 299 298 298 299 300 300 299 299 299 301 299 300 299 298 298 298 298 298 298
300 300 300 300 301 302 302 303 303 303 304 304 304 304 305 307 307 309 310 310 311 310 311 311 312 313 312 313 313 315 315 315 313 300 293 291 291 291 291 291 291 294 315 313 311 307 295 289 288 289 289 288 288 289 289 288 287 287 288 287 290 300 302 301 301 301 299 298 298 299 299 298 299 299 301 301 300 299 299 298 299 298 298 298 298
299 299 299 300 300 300 300 301 301 303 303 304 304 303 303 303 304 307 308 308 309 310 309 309 309 311 312 310 312 312 313 314 310 305 298 297 294 289 290 290 291 290 294 295 290 289 289 289 288 288 289 292 298 299 297 295 288 288 288 289 299 301 301 300 300 299 298 298 297 296 297 298 298 300 300 299 298 298 298 297 296 296 296 295 295
298 299 299 299 300 300 300 300 300 302 302 302 303 303 302 303 303 303 306 306 307 308 310 310 310 309 308 309 310 311 313 312 309 308 308 306 304 301 301 297 293 294 297 295 293 293 292 294 294 291 292 290 293 292 293 291 292 294 296 298 301 301 300 299 298 297 296 297 296 297 297 298 299 299 298 298 296 297 298 296 295 295 294 294 293
298 298 298 299 298 299 299 293 296 298 299 300 301 302 303 303 301 301 302 304 305 307 309 307 306 308 309 309 310 308 310 309 310 309 310 308 305 305 304 302 304 304 301 300 298 297 296 292 293 298 299 299 298 297 296 297 298 297 300 301 300 298 295 292 293 297 298 299 297 296 297 297 297 297 297 296 296 296 297 295 294 293 293 293 291
297 297 297 297 297 298 298 298 299 299 299 300 300 302 302 302 302 303 306 306 307 308 310 310 310 309 310 310 307 307 306 307 309 303 309 299 302 306 303 303 304 302 298 294 298 298 298 298 297 298 297 295 295 296 298 298 295 299 300 301 300 300 299 298 298 297 297 296 295 295 292 296 296 297 296 295 296 295 296 294 294 293 293 292 291
295 295 296 296 296 297 297 298 298 297 298 299 299 300 294 295 300 303 304 297 289 289 292 306 309 311 309 309 310 311 308 308 292 293 293 294 295 295 296 296 295 298 293 292 296 297 295 297 297 296 295 296 295 296 297 297 294 295 295 292 296 298 297 296 297 297 294 293 293 292 293 293 293 295 294 294 294 294 294 292 293 293 291 291 290
294 295 295 295 295 295 296 296 296 297 297 297 299 299 300 302 289 289 292 290 287 288 290 294 300 301 308 306 303 291 290 291 292 292 292 293 292 293 292 292 292 291 292 295 296 296 295 295 296 296 296 297 296 296 296 296 295 295 294 294 293 295 293 294 295 292 291 291 292 293 292 293 293 293 293 292 292 292 293 293 293 292 291 291 290
293 294 294 295 294 293 295 295 296 296 296 297 297 297 297 298 301 291 286 290 290 288 289 291 294 296 296 301 303 307 293 290 291 291 292 291 291 291 290 291 291 291 291 293 295 295 296 296 296 295 296 295 296 295 296 295 295 294 293 294 294 294 293 293 293 294 292 292 292 292 293 293 293 292 292 291 290 291 291 291 291 290 290 290 290
293 293 293 293 293 293 293 294 294 295 295 295 296 297 297 297 296 299 295 288 288 290 291 291 291 293 294 294 297 298 296 293 291 291 291 290 290 290 290 290 291 291 291 294 296 296 297 296 297 298 297 296 296 295 296 297 295 295 295 294 293 294 295 295 291 294 292 292 291 292 293 293 293 292 291 291 291 290 290 290 290 290 289 289 288
293 292 292 293 293 293 293 293 293 293 294 294 295 295 296 297 298 298 299 300 298 293 289 289 290 291 292 293 293 292 292 291 291 292 291 290 290 290 290 291 291 290 292 295 297 296 297 297 297 298 298 296 296 294 294 294 295 295 294 295 296 297 296 296 294 292 291 291 293 292 292 293 292 292 292 291 291 290 290 289 289 289 288 288 288
293 290 288 288 291 291 292 292 292 292 292 293 293 294 295 296 296 296 297 300 299 299 300 299 292 292 296 291 290 290 291 290 291 291 290 290 290 289 290 292 292 291 294 298 298 298 296 296 296 299 299 297 296 294 294 297 295 294 294 293 295 295 293 292 291 292 291 293 292 292 292 291 291 292 291 290 290 290 289 289 289 289 288 288 288
293 293 293 292 291 291 291 292 292 291 292 292 293 293 293 294 294 296 297 297 299 299 299 301 299 289 290 291 289 289 289 290 290 290 290 289 289 290 293 293 293 294 293 296 298 298 299 298 298 300 299 297 297 294 296 296 295 295 297 295 292 292 292 291 290 290 290 291 292 291 292 292 292 291 292 291 290 290 290 289 289 289 288 288 288
294 294 295 295 294 293 292 292 292 292 289 290 291 291 292 293 294 295 297 298 299 300 302 300 298 296 293 292 289 288 288 289 289 289 289 289 289 292 294 295 294 294 295 297 298 298 298 299 300 299 298 297 297 297 293 295 297 297 293 294 294 292 291 290 290 290 292 292 292 292 291 292 292 291 291 290 290 290 290 289 289 288 288 288 287
295 295 295 294 294 293 292 292 292 289 290 290 291 291 291 292 293 293 294 296 298 297 298 298 295 297 295 294 291 291 289 287 287 288 288 288 290 293 292 292 294 294 295 298 298 299 298 299 299 299 299 299 298 298 297 296 295 292 292 292 291 292 288 289 288 289 290 292 292 292 292 292 292 292 291 290 290 290 290 289 288 288 288 288 288
295 291 289 288 289 293 293 292 291 291 291 291 291 290 289 290 290 291 293 296 296 296 295 298 297 297 297 295 293 292 290 290 290 289 290 291 293 294 295 295 295 294 297 298 298 298 299 298 298 299 299 298 298 297 295 294 295 293 292 292 291 291 290 291 292 292 292 292 292 292 292 292 292 292 291 291 290 290 289 288 288 288 287 287 288
293 295 292 288 291 291 291 290 290 291 290 291 291 291 290 290 290 290 292 294 295 297 298 296 297 299 296 296 293 293 291 291 290 288 288 289 290 292 293 293 293 295 294 297 297 298 298 298 298 298 298 299 297 296 295 293 292 291 291 292 291 290 290 291 292 292 292 291 292 292 292 291 291 291 291 291 290 290 288 288 288 288 288 288 288
294 295 291 290 289 291 291 290 290 291 292 291 291 291 291 291 292 292 295 295 295 295 296 297 299 299 297 293 290 291 294 293 292 290 289 290 290 291 294 295 294 294 296 295 297 296 298 297 296 294 294 295 293 295 294 293 292 292 291 291 291 290 291 291 292 292 291 291 291 291 291 291 291 291 290 290 289 290 290 289 289 289 288 288 288
294 293 293 293 292 292 292 291 292 291 291 289 290 290 289 291 293 294 294 294 295 293 295 297 298 295 290 288 288 289 293 291 291 291 292 293 292 294 295 296 297 295 296 296 298 295 295 294 295 295 295 294 294 294 293 292 292 291 291 290 289 289 290 291 291 291 290 291 291 290 290 290 290 290 290 289 290 290 290 289 289 289 289 289 289
293 293 293 293 293 293 292 292 292 292 291 291 290 290 290 293 295 297 294 293 293 295 296 294 294 293 290 288 289 289 295 293 289 293 294 293 294 294 295 295 295 294 296 297 297 296 296 295 294 295 294 294 293 293 292 292 291 291 290 289 289 289 289 290 290 290 290 290 290 290 289 290 290 291 291 290 290 290 289 289 289 289 289 289 289
293 293 294 293 294 295 295 296 295 294 294 292 292 293 294 295 295 294 296 297 296 297 297 295 294 293 292 292 292 294 294 292 292 293 292 291 292 293 295 294 296 296 295 295 296 295 295 295 294 294 294 292 293 291 292 292 291 290 290 290 289 288 289 288 288 289 289 289 289 290 290 290 290 291 290 290 290 289 289 289 289 289 289 289 289
294 293 293 294 294 295 296 295 294 294 292 293 294 296 295 295 296 295 295 295 294 294 292 293 293 292 293 294 294 294 292 291 289 289 290 291 292 292 293 294 294 294 295 295 295 295 294 294 294 293 292 293 291 291 290 290 291 291 290 290 289 289 288 288 288 288 288 287 289 290 290 290 290 290 290 290 289 289 289 289 289 288 289 288 288
293 293 292 293 293 294 294 295 293 297 296 295 294 296 296 295 296 295 295 295 294 295 293 291 290 292 292 293 294 293 292 292 292 292 291 290 291 291 291 292 293 293 294 294 294 294 294 293 293 293 292 291 291 291 291 291 291 291 290 290 289 289 289 288 288 287 288 287 288 289 289 289 289 289 288 290 290 290 290 290 290 289 289 288 288
293 293 292 292 292 292 293 294 294 294 294 293 293 293 295 295 294 293 292 294 296 296 296 294 293 292 293 293 292 293 293 293 293 292 291 291 291 292 293 293 293 292 293 293 292 293 292 292 291 290 290 290 290 290 291 292 290 291 291 291 289 287 285 285 286 287 288 288 288 288 288 288 288 289 290 290 290 290 290 290 289 289 289 289 288
294 293 292 291 292 292 292 293 293 290 293 292 292 292 293 294 294 294 295 295 294 294 294 294 294 294 293 293 293 293 293 294 293 293 293 292 293 293 292 292 291 292 292 292 293 292 293 292 291 291 290 289 289 289 290 290 291 290 291 288 285 283 282 281 284 286 286 285 285 286 287 287 288 289 289 289 290 290 290 290 289 290 289 289 289
295 294 293 292 291 290 290 291 291 292 292 292 291 292 292 292 292 293 293 293 293 292 292 292 292 292 292 292 292 292 293 293 293 293 292 292 292 291 292 292 291 292 292 291 291 291 291 291 291 291 290 290 289 289 289 289 289 289 288 286 283 281 280 280 281 283 282 284 286 286 287 287 288 289 289 290 290 290 290 290 290 289 289 289 289
296 294 294 293 292 291 291 291 291 291 291 291 290 290 290 290 290 291 291 292 291 291 291 291 291 291 291 291 291 292 292 292 291 292 292 291 292 292 292 291 291 291 291 291 291 291 291 290 290 290 289 289 289 289 289 288 288 286 285 283 281 281 280 279 280 281 282 283 283 284 285 286 287 289 290 291 290 290 290 289 289 289 289 289 289
295 295 294 293 293 293 292 292 291 290 290 289 289 289 288 288 288 289 290 290 291 291 291 291 291 291 291 291 291 291 291 291 291 291 291 292 291 290 290 290 290 290 290 290 291 291 291 291 291 290 290 289 289 289 289 286 284 283 282 281 281 280 279 279 280 280 280 280 282 284 286 287 288 289 290 291 291 290 289 289 289 290 290 290 290
Wind_Speed
8 6 5 5 7 4 8 11 7 6 7 6 6 7 7 8 7 6 6 6 6 6 6 7 7 6 7 6 6 6 6 6 5 5 5 5 5 6 6 6 6 6 5 6 6 5 6 7 6 4 3 5 4 4 4 4 3 4 3 4 3 3 3 5 5 5 3 2 2 3 3 2 2 2 3 1 1 2 3 1 1 4 5 4 7
5 5 3 3 7 9 12 10 8 6 6 6 6 7 7 7 7 7 6 6 7 7 7 6 6 7 7 7 7 7 7 7 6 6 6 6 6 5 5 6 7 7 5 6 5 4 4 5 5 4 3 3 1 5 5 4 4 5 3 3 4 2 3 2 5 4 4 1 2 2 2 1 3 3 2 2 1 4 5 2 3 4 1 5 2
5 3 4 4 7 9 8 7 7 7 7 6 7 7 7 8 7 7 6 6 7 6 7 7 7 7 7 7 7 7 7 7 6 6 7 7 6 5 5 6 7 6 5 6 6 5 4 4 4 3 2 2 2 5 3 2 1 6 4 4 4 3 4 4 2 5 3 3 1 3 2 2 4 2 2 2 1 4 5 3 4 4 3 2 5
5 5 5 5 6 6 6 7 8 7 7 6 7 7 8 7 8 7 6 6 6 6 7 7 7 7 7 7 7 7 7 7 7 7 8 7 7 6 6 6 5 5 5 6 6 5 5 4 4 3 3 2 1 2 0 2 3 4 3 3 3 3 3 2 4 4 2 2 1 2 5 1 3 3 2 3 5 5 3 3 3 4 3 5 5
6 7 8 7 6 6 7 7 8 8 7 6 6 6 7 7 7 8 7 7 6 5 7 7 7 8 7 8 8 7 7 8 8 7 7 6 7 7 7 6 5 5 5 4 5 5 5 4 6 5 4 4 2 3 3 1 2 3 2 3 4 3 2 2 2 1 2 1 1 1 4 3 1 2 3 6 7 8 6 4 6 7 5 3 5
6 8 7 6 5 5 6 7 8 8 7 8 8 6 6 7 8 8 8 8 8 6 7 7 7 8 8 9 9 8 8 8 8 8 8 7 7 6 6 6 6 5 5 4 5 4 5 5 6 5 5 4 5 3 3 4 1 3 3 4 4 3 3 2 3 3 4 2 2 2 4 1 7 7 6 2 6 6 5 5 5 7 8 8 7
5 6 7 8 8 7 7 6 6 7 7 6 5 7 7 8 8 9 8 8 8 8 7 7 7 8 9 9 9 10 10 9 8 8 9 8 7 7 6 7 6 5 6 5 6 5 5 5 5 6 6 5 4 4 3 2 1 2 2 1 2 4 3 5 1 2 2 4 4 3 2 4 5 3 6 4 4 4 6 6 8 8 8 8 8
7 6 7 6 6 7 6 6 5 5 5 5 6 6 7 8 8 8 8 9 8 9 9 8 8 8 9 9 9 9 9 9 10 10 9 8 8 8 7 7 7 6 5 6 6 6 6 7 6 6 6 6 5 4 5 4 4 3 3 3 3 2 3 2 1 4 3 3 4 4 4 5 2 7 5 5 7 8 7 8 9 9 9 7 8
7 6 6 5 5 5 5 4 4 4 5 5 4 6 6 7 8 8 8 7 7 8 8 9 8 9 9 9 9 8 9 9 8 9 9 10 9 8 8 8 7 8 7 7 6 5 6 6 7 6 7 5 6 6 5 2 2 5 5 3 3 3 2 3 3 4 4 5 4 3 4 3 4 5 4 5 6 7 6 7 8 9 9 9 9
6 6 6 6 5 5 4 4 4 4 4 5 6 6 7 8 7 8 8 8 8 8 9 10 10 10 10 10 9 8 8 7 6 9 6 9 9 8 7 8 8 7 8 7 7 7 6 6 6 6 8 10 8 8 5 3 7 5 5 3 4 2 2 4 5 4 5 4 5 6 4 4 5 5 5 6 5 7 6 7 9 9 10 9 8
6 6 6 5 4 3 3 3 3 4 4 3 4 7 8 7 7 7 7 8 6 5 7 10 10 10 11 10 11 9 8 4 9 7 4 5 9 8 8 8 8 7 7 7 6 5 2 6 8 12 8 5 3 5 5 3 4 6 7 8 7 2 2 4 5 4 4 6 6 5 5 6 6 5 6 7 7 6 6 7 9 9 9 9 9
6 6 5 5 4 3 3 1 2 3 4 4 5 3 3 4 4 5 5 5 4 6 8 10 10 8 8 9 10 8 7 8 10 9 6 4 3 6 8 8 8 7 6 7 7 6 6 3 2 1 4 4 6 6 4 4 5 7 8 8 8 10 8 5 4 3 3 5 2 4 7 6 5 5 4 5 6 7 8 8 8 8 9 9 9
6 6 6 5 5 3 2 2 2 2 1 3 3 4 4 4 4 4 7 6 5 9 8 7 8 8 7 9 8 9 7 11 10 9 8 9 7 4 6 7 7 7 6 7 5 1 3 6 8 6 5 6 9 8 8 5 5 7 9 9 7 8 8 7 6 4 4 3 3 5 4 4 3 3 6 5 5 6 7 7 7 8 8 10 10
7 6 7 6 5 4 2 2 2 1 2 3 2 3 4 4 4 4 4 5 6 4 9 11 9 9 9 10 9 6 5 9 12 10 8 10 9 5 7 6 7 7 6 4 4 3 2 3 4 4 2 4 7 8 8 8 7 6 7 6 5 6 7 7 4 4 3 2 3 3 2 1 3 4 4 4 5 6 6 7 8 9 9 10 11
6 5 5 5 4 4 5 4 3 3 2 2 2 3 4 4 5 5 5 6 6 7 5 10 9 6 6 4 3 5 3 5 11 14 12 10 9 4 6 6 6 5 5 5 5 5 5 4 5 5 5 8 9 9 8 8 8 7 8 8 6 6 6 4 2 1 2 1 2 1 1 3 3 3 3 4 4 5 5 7 9 10 10 11 12
6 5 4 5 5 5 4 3 3 3 3 2 3 4 4 5 6 6 6 7 7 6 7 5 6 9 10 7 4 6 7 13 15 15 13 12 10 7 8 8 7 5 4 6 5 4 5 6 5 7 9 10 5 4 8 7 8 8 8 8 7 6 6 4 4 7 7 6 6 5 5 5 5 4 4 4 5 6 6 7 8 9 10 10 10
7 7 6 7 6 6 5 5 4 4 4 4 5 4 4 4 5 6 7 7 8 8 8 8 8 10 11 7 8 7 8 10 16 15 14 13 9 8 9 8 6 7 8 5 3 3 6 7 4 7 9 6 8 9 7 7 8 9 8 8 7 6 5 4 5 6 7 9 7 7 6 5 4 4 2 1 2 4 5 7 7 7 8 10 10
6 6 6 7 7 7 6 7 6 5 5 5 5 5 5 5 5 5 6 7 8 8 8 9 10 10 8 7 9 9 9 10 14 14 13 14 12 10 9 8 7 7 6 6 5 5 7 7 7 5 6 7 7 9 9 6 7 8 8 8 7 6 6 5 3 3 5 3 3 3 4 5 5 4 5 5 4 3 4 6 7 7 8 8 10
7 7 7 8 8 8 8 7 7 7 7 7 5 6 6 6 7 6 7 6 7 7 8 9 9 9 7 8 7 5 6 7 13 14 14 14 12 9 8 8 6 6 6 7 6 6 6 7 10 9 9 8 9 8 6 5 5 8 8 7 6 7 7 7 5 5 5 5 5 4 5 5 5 6 8 12 10 9 6 6 6 6 7 8 9
7 7 8 8 8 8 7 8 7 7 7 7 7 6 6 7 8 8 7 8 8 8 8 8 9 8 8 8 8 9 8 5 10 14 15 14 15 9 6 4 5 5 6 7 7 8 7 6 7 10 12 10 9 9 8 8 4 8 6 7 6 6 8 5 4 2 1 4 4 5 5 5 7 8 8 9 9 10 9 6 6 6 8 9 9
8 8 8 8 9 9 8 8 8 8 8 8 8 8 7 8 8 8 8 8 9 9 9 8 8 8 8 8 8 8 7 9 10 14 14 14 14 8 3 5 8 8 10 9 8 9 9 7 6 6 9 10 10 10 10 11 11 6 7 7 6 6 3 4 4 2 4 5 6 6 6 6 6 6 6 5 9 9 9 11 9 8 9 10 10
8 9 9 10 10 9 9 9 9 8 9 9 9 10 9 9 9 9 9 9 10 10 9 8 9 9 8 7 7 6 6 11 9 11 12 12 9 6 4 11 13 12 10 10 9 9 9 8 7 6 10 11 11 11 12 12 12 8 7 8 8 10 4 2 1 5 5 5 5 5 5 5 5 6 5 4 5 5 5 7 8 9 10 10 11
10 10 10 10 10 10 10 11 10 9 9 10 10 10 10 10 10 10 10 11 10 11 10 9 9 8 9 7 6 8 8 7 11 10 11 8 4 7 9 3 6 7 8 8 8 9 8 9 8 9 12 12 11 11 11 12 10 7 7 9 9 6 3 2 2 3 5 4 4 5 6 6 5 4 4 5 4 5 5 7 9 10 10 10 10
9 10 10 10 11 11 11 12 11 11 11 11 11 12 11 11 11 11 11 11 11 11 10 10 10 7 4 8 5 7 7 8 8 9 8 6 4 1 6 9 8 0 6 7 8 9 10 9 9 12 12 12 11 11 11 10 8 7 6 4 2 3 3 3 4 4 3 4 5 5 5 4 5 5 4 4 4 6 7 7 8 9 9 9 10
7 8 9 10 11 11 11 11 12 12 12 11 12 11 12 12 12 12 12 12 12 13 10 11 10 7 8 7 8 7 5 5 5 7 10 7 5 8 9 12 12 10 3 8 8 8 13 16 15 14 13 13 14 12 10 9 7 5 3 1 3 4 4 3 2 2 4 4 4 4 4 4 4 5 3 4 6 7 7 7 7 8 9 10 10
9 9 10 10 10 11 12 13 14 14 13 12 13 12 13 12 12 11 12 13 11 10 12 11 11 8 7 7 10 8 7 8 8 6 7 7 7 10 13 15 16 18 16 14 18 20 18 15 15 14 13 11 8 6 6 5 4 3 2 4 5 4 2 2 2 3 4 3 3 4 4 4 4 4 5 7 8 6 7 8 8 9 9 9 10
12 11 11 11 10 10 11 11 11 11 13 13 13 13 12 13 13 13 12 12 13 12 11 11 7 6 7 12 8 8 10 9 8 7 7 7 6 7 9 10 14 15 12 11 13 11 12 10 7 7 8 7 10 12 9 6 4 3 5 5 4 2 1 1 2 3 3 3 3 4 4 4 5 6 6 6 7 7 7 8 8 9 9 9 10
12 13 13 13 12 12 12 11 11 10 12 13 13 13 12 13 14 14 13 12 12 11 9 7 10 10 12 9 8 11 10 8 9 10 9 8 8 7 7 7 6 7 9 9 10 11 10 9 9 7 7 7 6 5 5 5 5 5 5 4 2 3 4 4 2 4 4 2 3 4 5 5 5 5 6 6 6 7 7 8 8 9 9 9 9
13 14 13 12 12 12 11 12 14 13 12 12 13 13 13 13 13 12 14 10 6 9 11 6 3 4 7 0 8 11 10 8 8 8 10 10 8 9 8 7 7 7 9 13 11 9 9 8 7 6 6 4 4 5 6 5 3 2 1 3 4 5 5 6 5 2 1 3 4 4 3 5 5 5 5 6 7 8 8 8 8 9 9 9 9
12 12 11 11 11 11 11 12 12 12 14 13 12 13 16 13 11 11 10 6 8 10 7 6 9 6 5 3 4 4 5 7 12 12 12 11 10 11 11 11 10 11 14 14 10 8 6 5 5 5 5 4 4 4 4 3 3 2 3 2 3 2 2 2 2 1 3 2 3 3 3 4 4 7 7 8 8 8 8 8 9 8 8 8 8
10 10 11 11 10 10 11 12 11 12 12 13 12 12 12 11 7 3 1 1 3 6 9 6 4 2 6 5 6 12 9 11 16 11 12 11 11 11 9 14 19 19 17 10 5 5 5 5 5 5 5 5 5 5 4 3 3 4 4 3 3 0 1 2 1 1 2 2 2 2 3 3 4 4 5 7 8 8 8 7 8 8 8 8 9
10 10 10 11 11 10 11 11 12 12 12 12 12 14 13 14 8 6 5 3 5 5 6 6 7 17 15 14 9 5 6 9 12 13 12 11 10 11 12 16 19 19 16 12 6 5 5 5 6 5 5 5 5 4 4 3 3 3 3 3 3 2 0 0 2 3 1 2 2 3 3 3 4 5 6 6 5 7 8 7 7 7 8 8 9
11 11 11 11 11 11 11 11 11 11 12 12 12 12 14 13 14 11 1 6 5 5 3 4 3 10 13 12 16 13 12 10 13 12 11 12 12 13 15 16 17 16 13 5 5 5 6 6 6 7 7 5 4 4 4 5 3 3 2 1 0 1 1 3 0 3 1 1 3 3 3 4 4 5 5 5 6 6 6 7 7 6 8 8 8
12 11 11 11 12 11 11 11 11 11 10 11 10 11 12 13 12 14 10 5 3 3 6 4 4 8 6 10 10 10 14 14 12 14 14 14 15 15 15 12 14 15 10 5 5 6 6 6 7 8 7 5 4 4 4 3 3 3 2 3 2 1 2 1 2 2 2 2 2 3 4 4 4 5 6 6 6 6 7 6 7 7 7 7 8
12 12 12 11 11 12 11 11 11 10 10 9 10 10 11 12 13 13 14 8 7 8 9 5 3 0 5 6 9 10 13 13 15 14 15 15 16 16 15 9 6 4 3 4 7 8 6 6 6 7 6 5 4 4 3 5 3 2 2 1 1 1 0 0 0 2 2 3 3 3 3 4 4 5 5 6 6 7 7 7 7 7 8 8 8
12 11 11 11 10 10 11 11 11 11 10 10 9 10 11 12 12 12 12 12 8 8 10 7 7 7 8 7 10 12 13 13 13 15 15 16 16 18 9 7 8 8 6 8 9 9 8 8 7 7 6 5 5 3 4 3 3 3 3 3 1 0 0 0 0 2 2 2 3 3 4 4 4 5 5 6 5 6 7 7 7 7 6 7 7
10 8 7 7 8 7 8 9 10 10 8 7 7 9 11 11 12 12 12 11 9 7 6 6 8 7 8 6 7 9 12 13 14 16 17 18 20 13 3 7 9 10 9 9 9 9 8 7 6 6 6 5 4 5 3 4 4 4 4 0 1 0 0 1 1 0 2 2 3 4 4 4 4 4 5 6 6 6 7 7 7 7 6 7 6
11 10 10 8 7 8 7 8 8 6 6 7 8 9 10 11 11 12 12 10 8 2 3 3 7 9 7 6 8 7 9 12 14 11 9 11 8 5 3 3 7 7 6 8 8 8 7 6 5 5 5 6 5 5 4 2 2 2 2 1 0 0 3 2 4 3 4 4 3 3 4 4 4 5 5 5 6 7 7 6 7 8 7 7 7
10 9 3 4 8 7 6 7 6 7 7 7 8 8 7 9 9 10 12 10 8 5 5 8 6 6 7 9 8 10 12 8 7 8 8 6 4 4 4 4 5 6 7 7 6 7 6 6 5 5 6 6 6 5 4 2 2 2 1 1 1 1 2 1 1 0 1 3 3 4 4 4 5 5 5 6 6 6 7 7 7 7 8 8 8
9 9 4 4 7 6 5 5 6 7 7 8 9 8 8 7 9 10 11 11 4 1 4 4 7 7 9 10 10 10 8 8 8 6 7 5 1 1 3 2 4 4 4 7 6 7 6 6 6 4 5 6 5 5 3 2 2 3 2 0 0 0 0 0 1 1 2 3 3 4 4 5 6 5 5 5 5 6 7 5 5 4 5 6 6
8 7 7 6 2 5 5 5 6 7 7 8 8 8 9 9 10 10 8 7 4 2 6 8 8 9 9 10 11 10 8 8 9 9 10 10 8 6 3 4 5 3 3 4 5 5 6 4 4 4 3 3 2 3 3 2 1 2 1 1 0 1 1 1 1 2 3 3 3 4 5 5 4 5 5 6 6 7 6 5 6 6 6 6 6
8 7 7 7 6 5 6 6 5 6 7 6 8 8 8 10 12 10 7 5 1 5 2 5 7 9 13 18 11 10 7 6 5 5 7 8 5 5 5 6 4 4 4 5 5 5 5 5 5 4 4 4 4 3 3 2 1 2 2 2 2 2 2 2 3 3 3 3 3 4 4 4 5 5 5 7 6 6 6 7 7 7 6 6 6
8 7 6 6 6 6 6 5 5 5 6 7 8 9 11 5 4 2 4 3 5 3 7 6 9 9 9 9 11 10 8 7 9 8 7 6 5 4 3 4 4 4 6 6 5 5 5 5 5 5 4 3 3 3 3 3 2 2 3 2 3 2 2 3 3 3 3 3 3 4 4 4 5 5 5 5 6 6 7 7 7 8 7 7 7
7 7 7 6 6 5 3 2 3 3 4 4 7 5 3 6 5 1 3 3 5 5 6 8 7 8 8 8 7 7 8 7 6 4 4 1 3 3 5 5 5 6 5 5 5 5 5 5 5 6 5 4 4 4 4 3 3 3 3 3 3 3 3 3 3 3 3 3 4 4 4 5 6 6 6 5 6 7 7 6 7 7 8 8 6
7 7 7 7 6 5 6 5 3 4 4 6 6 5 6 6 6 5 7 5 7 6 6 7 7 6 7 6 5 7 9 8 7 5 5 3 0 4 4 5 5 5 5 5 5 5 4 5 7 6 5 4 3 4 4 3 3 3 3 3 3 4 4 3 3 3 2 3 4 4 4 5 5 5 5 6 6 6 7 7 7 6 6 6 7
7 6 7 7 8 6 5 5 5 2 2 2 4 1 4 6 8 8 6 5 6 6 7 6 4 3 3 6 7 10 10 11 9 10 6 3 4 4 2 3 5 5 6 6 5 5 6 6 5 5 6 5 4 4 4 3 3 3 3 3 4 4 3 3 3 3 2 3 4 4 4 5 5 4 6 6 6 7 7 6 5 6 7 7 7
7 6 7 6 7 7 7 8 7 7 7 9 9 8 5 7 6 6 6 7 7 7 8 7 6 5 6 6 6 8 10 10 9 9 9 8 5 3 3 4 5 6 6 5 5 6 6 8 9 8 7 5 4 3 3 3 3 3 3 4 5 5 5 4 3 3 3 3 4 4 4 5 5 5 5 6 7 6 6 6 6 5 7 8 8
7 7 7 6 6 6 7 6 6 7 7 8 8 8 9 8 8 7 7 8 8 8 7 7 8 7 7 7 8 6 8 9 9 10 9 8 6 5 4 4 5 6 5 6 6 6 6 6 6 7 6 4 3 3 3 3 3 3 4 6 6 6 6 7 4 4 4 5 5 5 4 4 5 5 6 6 7 7 8 7 7 8 6 7 6
8 7 7 7 7 7 7 7 7 7 7 6 7 8 8 8 8 8 8 8 8 7 7 7 8 8 8 8 10 10 9 10 11 10 9 8 7 6 5 4 5 6 7 7 7 7 6 6 5 5 4 4 3 3 4 4 4 4 5 5 7 9 8 8 6 5 7 6 4 4 5 5 5 6 6 7 7 7 7 6 6 6 5 5 5
7 8 7 7 7 8 7 7 7 7 7 7 6 7 8 8 8 8 8 8 8 8 9 9 9 9 8 9 10 10 10 10 8 8 8 7 7 6 6 6 6 6 6 6 6 6 6 6 5 5 4 4 3 3 3 4 5 5 5 5 7 7 8 9 7 7 6 5 6 5 5 5 6 6 6 7 6 5 6 7 6 5 6 5 4
6 7 7 7 8 8 8 9 9 8 8 7 7 8 7 7 7 8 8 8 9 9 9 10 10 10 11 10 8 9 9 9 9 9 7 7 7 6 6 6 6 6 5 5 5 6 6 6 5 5 4 4 3 4 5 6 6 5 5 6 7 8 9 9 7 8 10 8 6 5 5 5 6 7 6 6 7 7 6 7 5 5 6 6 6
Wind_Direction
127 134 156 153 140 162 214 240 192 171 169 169 167 161 151 146 153 156 162 166 162 170 156 158 156 153 152 153 141 137 132 128 130 128 127 122 109 118 127 121 117 107 102 102 110 115 95 91 92 79 72 92 106 113 100 97 93 65 79 81 64 39 55 96 109 112 110 114 170 92 55 260 148 355 73 21 359 209 229 326 291 267 226 180 165
112 128 156 153 167 195 216 206 193 176 174 180 173 161 157 155 154 163 170 164 176 173 166 156 159 164 160 154 148 146 145 136 139 135 123 122 122 127 126 121 110 114 126 112 92 83 103 106 98 82 72 96 181 152 143 160 151 159 119 84 91 72 360 147 129 135 121 178 154 133 133 300 287 115 35 5 358 312 293 253 215 238 263 333 168
108 133 149 178 202 199 202 192 185 180 178 184 177 160 162 158 161 163 177 166 180 180 160 168 165 166 161 157 157 151 150 145 138 133 131 134 135 129 128 116 122 127 130 133 135 122 122 115 110 96 101 107 335 42 49 302 317 70 56 54 64 49 40 15 299 121 152 132 183 198 142 72 331 351 117 171 329 331 302 320 319 318 313 257 302
135 132 135 184 196 195 192 187 190 180 186 189 178 171 165 166 164 168 177 177 180 183 162 178 173 167 168 166 158 162 150 151 152 148 148 142 139 138 127 132 138 147 147 156 137 150 144 146 128 127 126 137 119 113 218 50 23 84 103 95 104 74 68 38 355 26 157 144 210 307 109 280 207 211 262 277 191 223 245 271 258 285 319 316 320
143 154 163 166 180 183 189 183 190 194 190 181 172 183 179 173 172 177 175 181 186 183 173 188 178 177 173 174 167 168 160 161 161 157 148 158 153 147 155 149 159 159 161 149 147 161 150 169 158 154 163 154 140 186 132 214 234 132 219 134 125 110 129 339 49 266 302 272 119 5 326 261 36 342 303 345 341 322 323 336 343 337 321 295 292
157 153 150 152 159 173 174 178 190 195 193 196 178 196 197 193 180 189 178 184 186 185 189 191 188 183 185 181 175 173 173 171 167 165 161 164 160 161 165 158 165 172 159 165 170 175 172 177 164 166 181 166 178 160 145 178 359 195 208 314 102 85 360 81 288 23 297 311 327 288 173 346 331 345 329 68 325 307 308 318 337 328 331 324 318
148 148 150 163 159 174 176 182 189 195 197 205 201 189 199 200 194 192 185 191 188 188 189 199 195 195 193 190 183 181 176 177 177 174 171 172 170 171 167 170 174 181 175 185 181 179 197 191 176 182 183 188 163 146 140 143 106 330 17 291 262 147 178 243 231 195 327 330 283 204 269 163 187 273 317 324 272 287 322 357 328 327 323 317 314
139 137 144 152 152 161 173 175 189 194 197 203 200 192 197 200 202 197 189 193 196 197 192 200 200 209 200 197 190 188 181 182 180 179 179 178 173 175 178 173 184 177 186 195 187 192 199 202 195 196 193 188 171 164 174 183 175 203 201 199 294 95 232 248 255 290 260 251 287 324 320 330 262 176 251 331 341 321 348 340 319 320 319 317 311
129 124 124 126 129 135 142 153 168 188 193 186 201 194 209 200 201 205 200 201 192 206 203 201 202 210 211 200 196 188 190 189 183 182 180 177 177 180 181 184 187 186 183 201 199 203 211 210 211 204 193 152 130 77 60 49 203 203 201 193 216 189 252 272 269 252 256 262 272 244 260 265 285 302 344 348 318 322 322 308 314 312 312 311 309
110 118 111 110 113 117 127 140 166 172 187 168 194 222 211 200 201 206 208 214 206 207 216 213 210 208 215 203 204 194 196 203 155 174 191 174 180 181 181 194 196 199 202 201 202 218 223 228 221 219 148 130 143 130 130 75 45 35 360 188 165 197 241 260 270 279 280 296 301 306 298 290 316 349 325 309 304 296 312 332 315 313 307 302 302
101 109 107 97 95 100 111 137 160 178 160 211 201 191 208 220 211 217 219 220 226 243 238 221 218 218 218 208 205 197 200 168 115 109 90 173 183 185 184 191 193 205 212 222 219 190 293 328 21 30 17 72 124 174 152 134 86 70 67 45 45 46 270 250 259 277 305 315 303 294 287 290 302 320 306 312 319 342 347 319 308 305 305 309 307
90 87 96 107 103 111 109 126 165 161 188 183 195 208 209 217 223 222 228 221 206 240 240 238 227 221 224 218 208 197 206 125 148 138 156 186 245 199 190 194 193 197 203 214 222 213 163 135 257 221 219 205 217 194 178 150 130 105 87 85 84 72 65 52 1 320 291 274 290 311 333 311 316 309 349 7 355 339 320 310 298 297 303 304 303
86 81 79 80 82 72 128 141 147 160 195 195 190 226 221 216 224 222 232 237 213 230 232 273 262 226 215 228 220 212 212 147 170 172 174 193 216 270 203 200 196 201 204 210 223 234 161 178 179 175 198 208 223 209 186 150 113 122 120 108 93 103 99 75 52 16 344 339 324 306 311 337 339 9 45 354 350 311 305 299 304 308 306 298 295
57 53 50 50 48 41 49 50 2 109 174 201 222 222 230 232 235 240 237 239 240 267 254 236 236 236 227 231 233 238 246 162 169 179 192 204 212 226 227 206 210 207 206 195 184 182 145 132 123 170 153 174 234 224 176 156 159 154 163 174 159 120 106 98 85 70 20 325 322 294 44 24 328 353 360 0 328 316 310 301 309 302 298 293 298
56 45 44 33 32 21 353 22 3 22 340 299 236 242 243 240 230 230 235 237 239 236 248 256 250 283 277 261 253 279 341 167 195 186 195 197 213 227 233 216 214 216 205 197 184 187 185 141 148 163 171 198 217 232 168 157 170 176 177 183 171 173 185 172 130 152 166 212 256 287 28 52 25 23 1 337 323 315 310 303 299 293 287 284 278
58 40 33 34 19 8 354 2 331 326 323 301 275 258 241 239 238 233 238 242 232 216 231 235 240 241 259 253 254 246 238 196 198 190 182 193 193 202 217 216 205 184 211 186 186 200 201 185 176 198 180 219 146 142 135 167 170 176 177 170 171 143 74 53 45 43 38 38 38 39 52 49 42 32 24 345 313 303 301 295 288 280 279 282 287
32 27 17 16 4 353 352 334 348 311 305 304 294 283 269 257 243 236 237 240 250 233 223 228 225 218 222 216 228 234 243 202 193 182 181 183 187 210 220 214 202 203 203 157 170 69 37 28 304 221 180 158 124 125 131 181 179 175 173 168 155 142 130 110 78 67 73 80 90 94 99 113 113 121 121 59 343 336 309 293 278 292 298 296 293
12 9 3 352 342 344 338 332 333 333 312 293 293 293 288 277 271 243 244 249 245 249 251 249 247 244 217 199 219 222 218 182 187 180 180 183 196 213 224 221 201 173 160 173 147 109 71 26 342 208 139 116 138 142 171 234 183 173 166 173 164 162 142 143 150 107 95 114 118 147 185 183 192 197 209 201 183 235 275 288 306 307 290 288 294
347 347 341 336 332 330 327 327 320 317 314 304 306 301 290 280 272 272 261 248 250 252 246 248 246 244 226 203 206 182 230 165 180 175 184 188 200 221 217 202 195 191 167 152 144 136 114 59 38 67 95 106 101 93 52 348 216 171 185 183 185 187 159 160 158 166 186 197 198 197 220 210 215 218 215 201 199 208 238 266 286 289 296 302 304
337 330 329 327 320 312 308 308 310 307 306 308 301 295 289 285 276 266 262 258 257 249 240 242 241 245 241 212 201 204 207 186 184 181 184 192 202 215 184 171 148 179 174 166 160 147 129 102 68 75 97 95 84 72 47 14 287 174 176 204 220 225 133 141 80 36 298 268 269 222 244 223 202 208 223 188 202 204 213 244 266 278 289 293 297
325 325 319 312 306 300 301 305 304 302 296 294 292 286 281 277 276 268 262 256 257 262 250 239 242 239 235 223 221 203 192 195 185 189 195 199 205 209 180 181 177 196 190 172 162 149 144 124 114 81 98 92 86 74 63 42 35 78 63 69 57 20 29 131 108 117 258 262 256 256 248 247 244 240 253 241 191 194 204 214 248 293 300 295 292
315 309 302 298 297 297 293 291 295 293 287 282 281 276 274 273 266 262 255 255 253 253 256 243 239 232 223 213 214 188 175 155 168 184 200 205 191 182 266 203 182 189 178 175 165 148 134 133 130 113 100 94 85 79 68 62 60 79 73 79 54 43 35 20 171 199 228 233 251 262 278 288 289 295 293 294 303 303 308 315 317 303 296 300 306
310 305 302 297 293 287 283 278 273 272 271 272 273 276 275 271 267 263 259 254 253 252 244 241 240 228 228 213 183 186 176 151 156 171 189 186 188 241 262 226 88 191 174 171 152 131 118 110 104 107 98 93 88 85 87 86 79 80 81 56 48 26 338 248 251 278 267 275 297 292 291 280 278 291 302 309 325 341 327 320 318 319 312 304 302
313 308 302 295 287 283 279 276 270 265 264 264 264 265 264 263 262 260 255 250 246 245 242 235 231 221 242 233 201 184 171 160 151 159 156 155 186 218 91 80 55 187 178 160 137 124 126 124 119 112 99 93 85 75 68 72 95 100 82 95 19 311 261 234 227 243 266 279 274 269 273 305 309 290 297 324 328 337 329 323 305 293 288 288 289
307 304 301 301 300 299 295 287 282 276 271 267 264 259 257 256 257 254 254 252 247 244 248 243 228 199 216 233 219 200 176 121 138 101 108 106 73 56 58 56 40 7 210 146 119 106 101 110 115 111 108 103 104 101 93 91 93 89 92 130 276 238 231 258 289 305 285 274 275 297 304 300 307 309 329 331 313 288 283 286 288 294 295 294 292
308 306 304 302 299 296 294 292 292 287 278 270 264 258 258 256 252 248 246 248 254 257 246 249 244 218 180 198 218 189 190 177 157 134 125 122 85 68 69 74 69 59 62 83 95 106 112 115 113 116 122 131 138 128 120 116 129 163 220 247 238 239 260 282 241 245 267 289 310 301 299 308 303 327 319 264 263 302 313 305 307 303 300 299 298
305 301 300 299 299 297 296 295 296 294 287 276 265 260 258 254 251 250 249 246 243 247 242 236 250 268 227 213 197 182 183 172 142 150 150 143 132 121 105 96 98 95 91 96 98 101 115 121 120 105 91 74 79 88 101 122 153 204 206 212 226 215 172 315 349 321 293 293 299 307 313 314 314 296 287 319 329 322 319 313 306 304 305 300 298
303 301 300 298 296 296 296 281 271 279 281 280 277 272 262 253 251 249 246 244 241 243 254 269 252 231 228 220 210 202 180 173 159 159 162 152 149 146 128 128 127 124 120 120 120 124 123 112 118 127 135 136 135 154 160 177 190 195 206 189 167 99 75 55 312 257 250 287 311 313 312 312 301 312 325 318 314 316 316 313 309 306 305 305 300
299 297 296 294 292 292 288 293 292 283 267 270 277 272 267 266 264 259 252 260 283 254 235 222 219 325 326 36 219 189 188 168 169 156 150 149 150 155 148 149 140 131 120 121 122 129 136 148 151 151 162 168 171 178 174 186 189 173 167 226 193 188 200 206 210 236 18 347 325 321 311 305 310 310 302 308 317 322 323 316 311 306 306 303 296
300 297 295 293 293 291 292 291 288 296 299 282 270 271 274 274 274 281 279 28 30 21 348 232 223 206 170 116 17 44 84 85 69 80 111 124 133 131 136 132 115 118 125 135 138 142 158 162 161 165 168 174 183 187 178 175 168 180 167 360 288 240 41 334 281 15 18 317 307 304 312 319 313 320 324 320 316 312 312 309 304 305 303 302 300
300 296 294 291 293 295 292 288 289 290 294 297 287 281 284 259 211 234 12 41 29 30 22 338 126 343 118 108 71 60 54 93 114 121 112 117 117 126 133 126 127 132 141 143 153 156 162 171 172 175 181 180 188 184 178 173 180 187 176 183 208 148 207 265 11 356 318 316 318 323 316 304 307 316 315 313 311 309 307 307 306 308 307 305 302
297 295 293 292 292 286 281 283 286 285 284 284 290 285 273 278 262 92 65 87 68 47 52 13 182 162 160 150 146 108 61 86 108 114 120 115 128 138 134 135 139 143 157 160 151 168 176 180 182 183 186 187 186 172 164 185 175 184 167 190 187 157 255 272 58 324 308 305 329 314 297 310 320 314 311 311 311 303 307 312 312 310 307 307 305
295 293 291 288 285 280 278 276 276 276 277 279 279 279 279 268 276 267 127 68 70 87 39 45 154 180 162 159 158 165 149 144 130 119 122 126 129 136 139 143 147 153 155 168 167 179 188 191 187 187 183 189 166 164 180 170 173 176 188 172 156 150 206 94 201 246 290 346 312 300 315 320 318 319 313 309 309 312 315 312 312 314 310 306 304
293 289 286 286 285 285 282 280 276 275 275 276 278 281 282 285 273 275 262 213 180 84 74 75 107 116 133 158 140 134 146 147 145 151 158 151 150 146 142 149 157 163 165 168 187 191 191 191 188 180 186 177 162 168 170 175 164 169 160 172 184 166 112 337 307 8 334 328 309 312 311 329 331 316 313 314 317 316 314 315 313 309 308 307 307
289 282 271 267 271 272 272 270 271 270 273 275 276 272 276 275 277 275 273 254 243 219 203 153 126 106 139 146 149 141 146 152 159 164 161 157 149 145 129 127 144 183 223 234 212 193 186 184 185 179 180 159 163 162 172 163 162 155 168 167 159 113 40 336 347 6 350 323 305 305 339 323 314 314 316 315 315 315 312 312 311 311 312 313 310
292 289 287 278 267 264 261 262 262 263 263 266 270 280 282 286 290 284 277 263 245 256 239 184 142 71 87 114 142 147 147 150 159 164 165 153 148 143 150 164 162 177 184 210 207 184 180 184 182 184 166 161 156 159 161 156 155 185 163 128 155 130 158 61 24 18 343 312 286 306 323 316 321 317 314 314 312 313 315 316 314 314 312 305 303
301 287 271 281 282 258 260 262 263 262 264 268 280 280 275 279 280 283 281 273 245 222 241 143 127 120 105 96 102 126 140 154 162 159 158 163 164 165 161 167 167 168 188 201 191 178 180 184 176 175 152 149 157 163 156 174 176 125 87 351 81 134 82 28 8 354 327 339 308 326 329 325 332 326 325 320 318 316 316 318 316 312 308 301 294
305 310 322 333 326 298 269 263 272 267 258 260 266 269 271 275 280 282 287 278 246 183 124 192 176 157 148 129 117 123 119 116 115 115 134 150 156 151 157 215 175 178 194 201 177 178 171 161 171 161 164 165 178 177 165 152 134 125 136 127 200 114 88 252 198 229 237 250 298 328 326 338 336 330 323 320 317 317 324 330 328 320 315 308 306
311 322 3 292 306 312 297 284 268 268 267 261 258 258 267 275 278 281 278 280 257 202 161 185 202 185 148 139 141 128 126 140 157 150 148 161 157 135 135 206 212 185 206 161 157 166 168 168 176 169 169 172 174 151 150 148 130 105 91 197 194 151 178 301 103 238 349 359 335 334 341 340 337 333 330 321 327 339 336 327 316 311 307 307 305
317 316 356 349 330 318 300 285 279 270 266 268 266 264 268 263 260 260 263 264 256 171 172 181 195 161 143 149 146 154 158 159 165 154 137 143 148 123 135 210 241 199 194 132 160 172 157 167 168 170 174 159 161 161 146 135 133 133 177 120 77 121 69 340 20 3 12 350 333 338 342 346 341 341 338 337 335 330 321 311 304 294 294 300 303
333 337 340 338 343 309 291 276 277 275 272 264 266 270 264 262 261 258 266 278 233 172 205 198 174 139 146 123 126 147 157 157 153 155 157 156 157 168 198 200 226 197 134 138 166 156 160 160 152 134 127 130 122 107 124 128 129 120 92 99 79 41 5 59 23 39 10 327 339 348 348 342 337 338 335 334 331 326 327 324 322 321 314 302 299
344 346 339 333 322 319 319 307 297 276 268 272 279 274 271 265 264 266 269 272 299 211 193 104 106 94 102 111 101 95 114 117 96 122 136 151 178 200 199 180 176 129 136 155 159 152 144 135 137 138 131 129 134 140 139 132 111 86 88 66 58 39 18 18 34 26 351 346 350 356 339 327 331 336 336 338 333 336 335 333 326 315 309 310 315
342 350 342 328 324 318 312 305 300 289 275 263 254 249 249 265 314 279 310 269 230 224 86 92 94 107 111 112 119 132 127 134 146 146 151 159 189 226 149 105 88 114 147 144 136 137 140 139 132 130 130 123 122 118 105 87 73 78 81 69 57 43 33 26 14 6 357 350 343 337 319 328 339 338 341 341 348 341 334 326 322 324 326 324 322
344 346 344 336 339 345 341 353 336 310 304 290 283 302 343 63 25 304 169 97 68 92 91 94 102 111 124 129 139 137 116 94 81 101 112 154 254 139 120 129 137 150 143 132 132 134 137 141 128 105 94 82 67 62 74 79 76 72 59 61 70 51 40 27 11 6 358 344 326 320 332 342 338 337 352 358 347 331 328 326 328 331 326 326 327
353 345 352 339 7 25 23 24 348 322 312 331 346 14 26 49 39 40 51 61 72 70 66 79 100 119 128 130 120 119 121 118 107 81 35 3 21 86 86 99 119 128 128 122 118 127 135 118 98 105 118 109 106 91 80 71 58 61 62 48 48 49 41 26 12 2 349 330 318 325 334 338 336 339 350 343 332 329 334 336 331 324 327 334 329
7 359 360 348 349 360 21 23 9 351 180 232 258 225 92 56 54 38 49 79 67 79 90 89 77 82 121 119 118 114 114 113 113 110 102 71 52 56 52 114 106 101 103 104 103 93 93 103 131 134 104 91 84 100 110 106 93 79 75 76 56 51 37 26 10 351 343 333 321 322 325 327 332 337 328 335 338 333 330 327 333 342 340 333 330
24 23 13 8 357 1 1 8 13 8 22 20 10 16 39 76 91 80 35 32 67 91 87 100 112 118 115 113 120 121 119 120 117 112 111 108 96 91 103 102 96 90 82 76 81 83 78 75 68 73 86 100 83 58 69 84 84 80 67 65 63 48 36 3 349 334 333 331 324 316 327 322 315 319 336 338 330 329 330 340 349 347 345 334 324
31 27 32 26 19 16 15 12 15 6 27 31 25 17 17 27 52 58 74 68 52 61 77 90 97 100 104 107 108 119 134 132 121 121 118 118 118 113 97 94 98 102 98 95 88 84 86 87 88 86 87 88 91 81 64 59 59 46 60 65 50 38 22 5 334 335 347 340 320 305 300 303 314 316 318 318 319 333 338 348 346 345 337 329 318
32 36 37 38 40 35 27 25 29 36 33 39 44 41 36 39 44 54 62 65 70 79 88 94 98 104 111 115 117 111 98 109 119 120 112 106 107 105 96 82 80 83 90 88 88 85 86 86 89 95 93 93 86 86 76 57 58 60 55 57 43 31 18 1 341 341 328 312 304 305 298 295 300 309 310 311 325 337 342 346 341 333 322 308 299
37 40 39 45 47 45 46 44 42 45 50 52 56 61 61 58 57 58 57 69 83 90 93 93 95 96 99 106 109 105 104 107 96 88 85 88 89 90 88 84 88 99 107 111 109 110 105 101 94 87 79 76 76 74 78 73 58 50 43 36 28 19 5 349 337 340 334 330 320 310 308 297 294 294 319 331 336 335 342 342 338 334 322 313 341
49 43 45 44 45 50 48 49 51 51 52 56 60 62 62 64 65 64 72 78 82 82 87 94 95 90 88 83 78 78 80 83 80 82 81 82 84 82 82 80 82 88 96 105 109 113 123 125 112 99 89 75 64 66 65 62 50 39 37 37 27 10 357 349 339 332 326 314 305 295 284 289 290 312 333 337 337 341 329 322 346 332 329 345 355